CEB911 RPLL-RPVE

Flight info

Callsign CEB911
Flight time 0h 35m
Altitude 23000
Route VERDE2V VERDE W24 TAPER TAPER7A
Aircraft A320/M-SDE3FGHIRWY/LB1

Departure

Time 2026-04-21 04:06
Airport Ninoy Aquino International Airport (RPLL)

Arrival

Time 2026-04-21 04:42
Airport Godofredo P. Ramos Airport (RPVE)
Time Latitude Longitude Altitude Speed Heading
2026-04-21 03:43 14.52359 121.00809 83 ft 0 kts 45°
2026-04-21 03:54 14.52358 121.00809 83 ft 0 kts 45°
2026-04-21 03:54 14.52358 121.00808 83 ft 0 kts 45°
2026-04-21 03:54 14.52348 121.00798 83 ft 2 kts 44°
2026-04-21 03:55 14.52337 121.00787 83 ft 2 kts 45°
2026-04-21 03:55 14.52327 121.00776 83 ft 2 kts 44°
2026-04-21 03:55 14.52316 121.00765 83 ft 2 kts 45°
2026-04-21 03:55 14.52305 121.00754 83 ft 2 kts 44°
2026-04-21 03:56 14.52296 121.00745 83 ft 0 kts 45°
2026-04-21 03:56 14.52288 121.00738 83 ft 1 kts
2026-04-21 03:56 14.52277 121.00741 83 ft 0 kts 320°
2026-04-21 03:56 14.52273 121.00746 83 ft 1 kts 312°
2026-04-21 03:57 14.52271 121.00748 83 ft 0 kts 314°
2026-04-21 04:00 14.52276 121.00743 83 ft 1 kts 312°
2026-04-21 04:00 14.52293 121.00724 83 ft 4 kts 314°
2026-04-21 04:00 14.52319 121.00697 83 ft 6 kts 315°
2026-04-21 04:00 14.52353 121.00663 83 ft 7 kts 315°
2026-04-21 04:01 14.52393 121.00621 83 ft 8 kts 315°
2026-04-21 04:01 14.52438 121.00575 83 ft 9 kts 315°
2026-04-21 04:01 14.52486 121.00525 83 ft 7 kts 311°
2026-04-21 04:01 14.52475 121.00473 83 ft 8 kts 224°
2026-04-21 04:02 14.52455 121.00452 83 ft 1 kts 225°
2026-04-21 04:02 14.52443 121.00441 83 ft 2 kts 224°
2026-04-21 04:02 14.52426 121.00424 83 ft 3 kts 224°
2026-04-21 04:02 14.52402 121.00404 83 ft 5 kts 208°
2026-04-21 04:03 14.52365 121.00404 83 ft 5 kts 152°
2026-04-21 04:03 14.52342 121.00427 83 ft 0 kts 134°
2026-04-21 04:05 14.52321 121.00449 83 ft 15 kts 135°
2026-04-21 04:06 14.52050 121.00728 83 ft 91 kts 133°
2026-04-21 04:06 14.51452 121.01347 85 ft 147 kts 133°
2026-04-21 04:06 14.50699 121.02102 492 ft 153 kts 132°
2026-04-21 04:06 14.49945 121.02884 1046 ft 155 kts 130°
2026-04-21 04:07 14.49204 121.03677 1644 ft 156 kts 130°
2026-04-21 04:07 14.48439 121.04484 2102 ft 163 kts 131°
2026-04-21 04:07 14.47608 121.05353 2364 ft 176 kts 132°
2026-04-21 04:07 14.46704 121.06293 2618 ft 193 kts 132°
2026-04-21 04:08 14.45703 121.07333 2852 ft 214 kts 133°
2026-04-21 04:08 14.44609 121.08467 3198 ft 231 kts 134°
2026-04-21 04:08 14.43202 121.09406 3533 ft 253 kts 161°
2026-04-21 04:08 14.41383 121.09503 4014 ft 271 kts 189°
2026-04-21 04:09 14.39525 121.09070 4672 ft 275 kts 186°
2026-04-21 04:09 14.37613 121.08892 5377 ft 278 kts 180°
2026-04-21 04:09 14.35696 121.08808 6109 ft 281 kts 180°
2026-04-21 04:09 14.33739 121.08723 6848 ft 284 kts 180°
2026-04-21 04:10 14.31755 121.08621 7601 ft 287 kts 181°
2026-04-21 04:10 14.29743 121.08506 8359 ft 290 kts 181°
2026-04-21 04:10 14.27723 121.08381 9085 ft 294 kts 181°
2026-04-21 04:10 14.25672 121.08248 9792 ft 298 kts 181°
2026-04-21 04:11 14.23574 121.08111 10445 ft 303 kts 181°
2026-04-21 04:11 14.21421 121.07970 10809 ft 320 kts 182°
2026-04-21 04:11 14.19135 121.07818 11095 ft 337 kts 182°
2026-04-21 04:11 14.16724 121.07655 11401 ft 354 kts 182°
2026-04-21 04:12 14.14224 121.07486 11866 ft 363 kts 182°
2026-04-21 04:12 14.11639 121.07310 12526 ft 367 kts 182°
2026-04-21 04:12 14.09084 121.07135 13159 ft 370 kts 183°
2026-04-21 04:12 14.06458 121.06956 13756 ft 373 kts 183°
2026-04-21 04:13 14.03858 121.06780 14337 ft 376 kts 183°
2026-04-21 04:13 14.01245 121.06603 14906 ft 378 kts 183°
2026-04-21 04:13 13.98586 121.06423 15452 ft 381 kts 184°
2026-04-21 04:13 13.95966 121.06246 15969 ft 383 kts 184°
2026-04-21 04:14 13.93295 121.06065 16455 ft 385 kts 184°
2026-04-21 04:14 13.90586 121.05881 16957 ft 387 kts 184°
2026-04-21 04:14 13.87896 121.05700 17456 ft 389 kts 184°
2026-04-21 04:14 13.85168 121.05514 17930 ft 391 kts 184°
2026-04-21 04:15 13.82464 121.05331 18404 ft 394 kts 184°
2026-04-21 04:15 13.79702 121.05145 18883 ft 396 kts 184°
2026-04-21 04:15 13.76925 121.04958 19365 ft 397 kts 184°
2026-04-21 04:15 13.74162 121.04771 19808 ft 399 kts 184°
2026-04-21 04:16 13.71404 121.04584 20255 ft 401 kts 184°
2026-04-21 04:16 13.68589 121.04394 20692 ft 404 kts 184°
2026-04-21 04:16 13.65774 121.04204 21112 ft 406 kts 184°
2026-04-21 04:16 13.62933 121.04011 21376 ft 413 kts 184°
2026-04-21 04:17 13.60029 121.03813 21679 ft 418 kts 184°
2026-04-21 04:17 13.57103 121.03617 22077 ft 420 kts 184°
2026-04-21 04:17 13.54208 121.03432 22499 ft 421 kts 182°
2026-04-21 04:17 13.51238 121.03690 22816 ft 425 kts 169°
2026-04-21 04:18 13.48422 121.04652 22915 ft 428 kts 155°
2026-04-21 04:18 13.45889 121.06203 22944 ft 429 kts 147°
2026-04-21 04:18 13.43423 121.07962 22958 ft 429 kts 146°
2026-04-21 04:18 13.40973 121.09733 22970 ft 428 kts 146°
2026-04-21 04:19 13.38517 121.11488 22994 ft 428 kts 146°
2026-04-21 04:19 13.36054 121.13229 22989 ft 427 kts 147°
2026-04-21 04:19 13.33597 121.14957 22994 ft 427 kts 147°
2026-04-21 04:19 13.31174 121.16656 22994 ft 427 kts 147°
2026-04-21 04:20 13.28717 121.18377 22993 ft 427 kts 147°
2026-04-21 04:20 13.26250 121.20106 22991 ft 427 kts 147°
2026-04-21 04:20 13.23778 121.21838 22984 ft 427 kts 147°
2026-04-21 04:20 13.21331 121.23553 22965 ft 427 kts 147°
2026-04-21 04:21 13.18868 121.25281 22945 ft 427 kts 147°
2026-04-21 04:21 13.16410 121.27002 22947 ft 427 kts 147°
2026-04-21 04:21 13.13961 121.28718 22956 ft 427 kts 147°
2026-04-21 04:21 13.11479 121.30456 22958 ft 427 kts 147°
2026-04-21 04:22 13.09027 121.32174 22959 ft 427 kts 147°
2026-04-21 04:22 13.06598 121.33875 22959 ft 427 kts 147°
2026-04-21 04:22 13.04133 121.35601 22958 ft 427 kts 147°
2026-04-21 04:22 13.01661 121.37332 22957 ft 427 kts 147°
2026-04-21 04:23 12.99199 121.39055 22958 ft 427 kts 147°
2026-04-21 04:23 12.96764 121.40756 22959 ft 427 kts 147°
2026-04-21 04:23 12.94286 121.42490 22906 ft 427 kts 147°
2026-04-21 04:23 12.91844 121.44197 22359 ft 426 kts 147°
2026-04-21 04:24 12.89396 121.45908 21844 ft 422 kts 147°
2026-04-21 04:24 12.86976 121.47591 21335 ft 418 kts 147°
2026-04-21 04:24 12.84575 121.49258 20816 ft 415 kts 147°
2026-04-21 04:24 12.82194 121.50916 20322 ft 411 kts 147°
2026-04-21 04:25 12.79845 121.52552 19818 ft 408 kts 147°
2026-04-21 04:25 12.77492 121.54193 19304 ft 405 kts 147°
2026-04-21 04:25 12.75175 121.55808 18831 ft 402 kts 146°
2026-04-21 04:25 12.72864 121.57421 18321 ft 399 kts 146°
2026-04-21 04:26 12.70574 121.59019 17825 ft 396 kts 146°
2026-04-21 04:26 12.68281 121.60619 17342 ft 392 kts 146°
2026-04-21 04:26 12.66038 121.62183 16858 ft 389 kts 146°
2026-04-21 04:26 12.63785 121.63753 16345 ft 387 kts 146°
2026-04-21 04:27 12.61566 121.65300 15861 ft 384 kts 146°
2026-04-21 04:27 12.59390 121.66827 15394 ft 381 kts 145°
2026-04-21 04:27 12.57184 121.68379 14893 ft 379 kts 145°
2026-04-21 04:27 12.55013 121.69900 14405 ft 377 kts 145°
2026-04-21 04:28 12.52863 121.71403 13915 ft 375 kts 145°
2026-04-21 04:28 12.50727 121.72894 13441 ft 373 kts 144°
2026-04-21 04:28 12.48578 121.74390 12952 ft 370 kts 144°
2026-04-21 04:28 12.46454 121.75870 12479 ft 368 kts 144°
2026-04-21 04:29 12.44342 121.77342 12009 ft 365 kts 144°
2026-04-21 04:29 12.42245 121.78802 11538 ft 362 kts 144°
2026-04-21 04:29 12.40163 121.80249 11060 ft 359 kts 144°
2026-04-21 04:29 12.38091 121.81639 10578 ft 358 kts 150°
2026-04-21 04:30 12.35725 121.82363 10315 ft 350 kts 174°
2026-04-21 04:30 12.33336 121.82153 10228 ft 338 kts 190°
2026-04-21 04:30 12.31104 121.81654 10122 ft 324 kts 191°
2026-04-21 04:30 12.28928 121.81155 10057 ft 310 kts 191°
2026-04-21 04:31 12.26870 121.80688 9924 ft 299 kts 190°
2026-04-21 04:31 12.24833 121.80235 9576 ft 297 kts 190°
2026-04-21 04:31 12.22802 121.79788 9234 ft 295 kts 190°
2026-04-21 04:31 12.20794 121.79349 8911 ft 293 kts 189°
2026-04-21 04:32 12.18828 121.78921 8591 ft 290 kts 189°
2026-04-21 04:32 12.16852 121.78493 8263 ft 288 kts 189°
2026-04-21 04:32 12.14895 121.78068 7945 ft 286 kts 189°
2026-04-21 04:32 12.12935 121.77644 7623 ft 284 kts 189°
2026-04-21 04:33 12.11016 121.77228 7313 ft 282 kts 188°
2026-04-21 04:33 12.09089 121.76812 7003 ft 280 kts 188°
2026-04-21 04:33 12.07200 121.76402 6704 ft 278 kts 188°
2026-04-21 04:33 12.05314 121.75994 6401 ft 276 kts 188°
2026-04-21 04:34 12.03428 121.75585 6102 ft 274 kts 188°
2026-04-21 04:34 12.01555 121.75180 5806 ft 272 kts 187°
2026-04-21 04:34 11.99701 121.74779 5511 ft 270 kts 187°
2026-04-21 04:34 11.97865 121.74382 5226 ft 269 kts 187°
2026-04-21 04:35 11.96038 121.73987 4940 ft 267 kts 187°
2026-04-21 04:35 11.94227 121.73596 4659 ft 265 kts 187°
2026-04-21 04:35 11.92398 121.73211 4364 ft 263 kts 184°
2026-04-21 04:35 11.90626 121.73251 4051 ft 253 kts 161°
2026-04-21 04:36 11.89018 121.73918 3815 ft 243 kts 148°
2026-04-21 04:36 11.87534 121.74702 3763 ft 229 kts 147°
2026-04-21 04:36 11.86167 121.75428 3751 ft 215 kts 147°
2026-04-21 04:36 11.84905 121.76139 3675 ft 202 kts 136°
2026-04-21 04:37 11.84128 121.77236 3463 ft 186 kts 102°
2026-04-21 04:37 11.84073 121.78534 3280 ft 184 kts 76°
2026-04-21 04:37 11.84577 121.79716 3212 ft 176 kts 65°
2026-04-21 04:37 11.85122 121.80785 3033 ft 166 kts 65°
2026-04-21 04:38 11.85644 121.81818 2808 ft 161 kts 64°
2026-04-21 04:38 11.86156 121.82836 2593 ft 160 kts 65°
2026-04-21 04:38 11.86656 121.83833 2389 ft 157 kts 65°
2026-04-21 04:38 11.87159 121.84837 2174 ft 156 kts 65°
2026-04-21 04:39 11.87641 121.85799 1942 ft 144 kts 64°
2026-04-21 04:39 11.88072 121.86655 1760 ft 132 kts 63°
2026-04-21 04:39 11.88487 121.87485 1609 ft 131 kts 62°
2026-04-21 04:39 11.88905 121.88318 1438 ft 130 kts 63°
2026-04-21 04:40 11.89319 121.89143 1267 ft 130 kts 63°
2026-04-21 04:40 11.89729 121.89960 1100 ft 130 kts 64°
2026-04-21 04:40 11.90145 121.90788 928 ft 130 kts 65°
2026-04-21 04:40 11.90554 121.91601 749 ft 129 kts 65°
2026-04-21 04:41 11.90965 121.92421 579 ft 129 kts 66°
2026-04-21 04:41 11.91380 121.93231 408 ft 128 kts 65°
2026-04-21 04:41 11.91777 121.94037 249 ft 127 kts 66°
2026-04-21 04:41 11.92179 121.94842 84 ft 125 kts 66°
2026-04-21 04:42 11.92536 121.95561 30 ft 84 kts 64°
2026-04-21 04:42 11.92722 121.95926 30 ft 39 kts 64°
2026-04-21 04:42 11.92791 121.96069 29 ft 11 kts 66°
2026-04-21 04:42 11.92769 121.96130 30 ft 10 kts 153°
2026-04-21 04:43 11.92701 121.96165 29 ft 11 kts 153°
2026-04-21 04:43 11.92652 121.96191 29 ft 6 kts 146°
2026-04-21 04:43 11.92644 121.96230 29 ft 6 kts 60°
2026-04-21 04:43 11.92667 121.96276 29 ft 7 kts 63°
2026-04-21 04:44 11.92694 121.96327 29 ft 8 kts 63°
2026-04-21 04:44 11.92707 121.96375 30 ft 6 kts 121°
2026-04-21 04:44 11.92679 121.96392 30 ft 3 kts 152°
2026-04-21 04:44 11.92665 121.96400 30 ft 1 kts 152°